Location: Wayah Bald
(35.1806°N, 83.5603°W)
Time: 00:22:03
(UTC-04:00)

Daily predictions for brighter satellites

Satellite Brightness Start Highest point End
(mag) Time Altitude Azimuth Time Altitude Azimuth Time Altitude Azimuth
NOSS 2-3 (D) 4.0 00:05:33 73° N 00:05:33 73° N 00:10:32 10° NNE
Terra 2.6 00:09:59 43° W 00:09:59 43° W 00:14:13 10° NNW
In-Cosmos 22 Rocket 4.5 00:11:14 56° ENE 00:11:14 56° ENE 00:16:20 10° NNE
Okean 1-7 4.2 00:09:30 10° N 00:12:15 37° NNE 00:12:15 37° NNE
Meteor 2-3 Rocket 4.0 00:17:04 57° ENE 00:17:04 57° ENE 00:22:02 10° NNE
Cosmos 372 Rocket 4.1 00:17:21 71° NNW 00:17:21 71° NNW 00:22:09 10° NNE
Cosmos 2263 Rocket 4.4 00:29:48 13° ENE 00:29:48 13° ENE 00:30:57 10° ENE
ATLAS 2AS CENTAUR R/B 4.4 00:26:15 10° WSW 00:32:59 34° NW 00:40:09 10° NNE
Lacrosse 4 Rocket 3.1 00:37:30 10° NW 00:40:03 31° NW 00:40:03 31° NW
Cosmos 2074 Rocket 3.9 00:44:59 79° W 00:44:59 79° W 00:51:19 10° N
ATLAS 3B R/B 2.8 00:40:06 10° NW 00:46:35 59° WSW 00:46:35 59° WSW
SL-16 R/B 2.9 00:41:36 10° NNW 00:46:17 46° W 00:46:17 46° W
Cosmos 2227 4.4 00:49:12 66° NNW 00:49:12 66° NNW 00:54:20 10° NNE
Cosmos 2333 Rocket 4.3 00:46:12 10° WNW 00:49:33 16° W 00:49:33 16° W
CZ-2C R/B 4.4 00:47:49 10° NE 00:50:05 20° ENE 00:50:05 20° ENE
Cosmos 44 4.1 00:57:49 55° N 00:57:49 55° N 01:02:10 10° NNE
USA 238 DEB 3.6 00:54:49 10° NNW 01:01:53 81° ENE 01:02:06 80° E
USA 238 3.6 00:54:55 10° NNW 01:01:59 80° ENE 01:02:13 79° E
COSMOS 2455 3.9 00:56:33 10° NW 01:01:03 35° W 01:01:03 35° W
Cosmos 1943 4.3 01:03:03 10° N 01:08:08 36° ENE 01:08:08 36° ENE
BREEZE-M DEB (TANK) 4.4 01:03:03 10° NW 01:08:47 27° N 01:09:06 27° NNE
Cosmos 2154 Rocket 4.0 01:17:41 77° N 01:17:41 77° N 01:23:30 10° N
H-2A R/B 4.2 01:16:22 10° N 01:18:48 32° NNW 01:18:48 32° NNW
Cosmos 2251 Rocket 4.4 01:15:51 10° NNW 01:19:34 43° NW 01:19:34 43° NW
Cosmos 1603 4.2 01:15:41 10° NNW 01:20:06 53° NW 01:20:06 53° NW
SeaSat 1 3.6 01:23:17 39° NW 01:23:17 39° NW 01:26:27 10° NNW
Meteor 1-27 Rocket 4.3 01:21:08 10° N 01:26:02 54° NE 01:26:02 54° NE
CZ-4C R/B 3.0 01:25:21 10° NNW 01:32:34 69° ENE 01:33:37 62° E
Cosmos 1867 4.5 01:40:27 10° NNW 01:45:23 43° NE 01:45:23 43° NE
CZ-2C R/B 3.9 01:47:42 48° ENE 01:47:42 48° ENE 01:52:44 10° N
Cosmos 2341 Rocket 4.3 01:54:02 58° WNW 01:54:02 58° WNW 02:00:00 10° N
NOSS 3-4 (A) 3.8 01:54:26 61° WNW 01:54:36 61° NW 02:01:05 10° NNE
NOSS 3-4 (C) 3.7 01:54:33 62° WNW 01:54:41 62° NW 02:01:10 10° NNE
NOSS 3-2 (A) 3.9 01:49:38 10° NNW 01:57:18 82° ENE 01:58:20 70° SE
SL-8 Rocket 4.0 02:00:20 78° N 02:00:20 78° N 02:06:13 10° N
Cosmos 1844 Rocket 4.3 02:08:12 24° E 02:08:12 24° E 02:11:44 10° NE
Cosmos 2263 Rocket 2.7 02:11:29 53° NW 02:11:29 53° NW 02:16:27 10° NNE
Cosmos 2218 Rocket 4.0 02:14:09 78° NNW 02:14:09 78° NNW 02:20:07 10° N
Cosmos 2366 rocket 4.0 02:24:58 76° NW 02:24:58 76° NW 02:30:47 10° N
Cosmos 2056 Rocket 4.0 02:32:51 57° N 02:32:51 57° N 02:37:07 10° NNE
CZ-2C R/B 3.8 02:27:37 10° N 02:31:36 33° NW 02:31:36 33° NW
Cosmos 407 Rocket 4.3 02:31:36 10° N 02:36:33 44° ENE 02:36:34 44° ENE
Cosmos 2278 Rocket 3.9 02:36:48 21° E 02:36:48 21° E 02:40:55 10° NE
COSMOS 2406 3.6 02:40:33 10° NNW 02:46:15 58° ENE 02:46:47 56° E
Cosmos 1727 Rocket 4.0 02:45:54 10° NNW 02:51:46 65° WNW 02:51:46 65° WNW
Meteor 1-25 Rocket 4.2 02:57:03 83° NNW 02:57:03 83° NNW 03:02:40 10° N
Iridium 4 Rocket 3.7 02:53:08 10° N 02:57:15 64° NNW 02:57:15 64° NNW
USA 234 4.5 02:58:48 10° ESE 03:04:45 39° NE 03:10:43 10° NNW
Cosmos 1934 Rocket 4.4 03:08:09 48° SE 03:09:19 55° E 03:15:18 10° NNE
CENTAUR R/B 3.5 03:02:55 10° NNW 03:10:45 60° NE 03:18:55 10° SE
NPP 3.7 03:07:32 10° NNE 03:12:56 70° ESE 03:13:04 69° ESE
Cosmos 1954 Rocket 4.5 03:08:06 10° N 03:13:11 55° ENE 03:13:58 49° ESE
Okean 1 Rocket 3.6 03:16:19 58° N 03:16:19 58° N 03:19:56 10° N
CZ-4C R/B 4.3 03:15:07 10° WNW 03:18:45 21° W 03:18:45 21° W
IRS-P3 Rocket 4.5 03:18:35 10° NNE 03:24:00 89° ESE 03:24:20 80° S
Okean 1-7 Rocket 3.8 03:20:16 10° N 03:24:24 70° NNE 03:24:24 70° NNE
CZ-2D R/B 4.1 03:22:19 10° NE 03:26:30 22° E 03:28:57 17° SE
Cosmos 489 Rocket 4.4 03:20:30 10° NNW 03:26:46 79° ENE 03:28:37 48° SSE
ERS-2 3.2 03:25:21 10° NNE 03:28:00 44° NNE 03:28:00 44° NNE
Cosmos 1000 Rocket 4.3 03:23:51 10° N 03:29:59 77° W 03:30:53 65° SSW
SL-24 DEB 4.4 03:26:45 10° N 03:31:00 66° NW 03:31:00 66° NW
Cosmos 1025 Rocket 4.0 03:28:28 10° N 03:32:33 41° E 03:33:09 38° ESE
Cosmos 1452 Rocket 4.1 03:37:27 42° WNW 03:37:37 42° WNW 03:42:37 10° N
Meteor 2-21 Rocket 4.3 03:37:34 61° SSW 03:38:44 84° W 03:44:51 10° N
ARIANE 5 R/B 3.4 03:36:48 10° NNE 03:41:31 40° E 03:42:54 33° SE
IRS-1C 4.0 03:38:32 10° NNE 03:43:54 89° W 03:44:44 65° SSW
Cosmos 1420 Rocket 3.9 03:45:14 66° WSW 03:45:48 74° WNW 03:51:06 10° NNE
Cosmos 1536 2.9 03:47:37 74° ENE 03:47:37 74° ENE 03:51:28 10° N
Cosmos 1605 Rocket 3.9 03:47:07 47° S 03:49:03 82° E 03:55:21 10° N
GP-B 3.6 03:44:58 10° N 03:48:48 48° WNW 03:48:48 48° WNW
Cosmos 1356 4.3 03:50:06 49° ENE 03:50:06 49° ENE 03:53:08 10° NNE
Cosmos 1821 Rocket 4.2 03:48:54 48° WSW 03:50:11 56° W 03:56:29 10° N
Cosmos 1844 Rocket 3.5 03:49:51 35° W 03:50:48 38° WNW 03:56:05 10° N
CBERS-1 4.1 03:47:08 10° N 03:52:11 58° WNW 03:52:47 54° WSW
NOSS 2-2 (D) 4.2 03:52:27 42° WNW 03:52:35 42° NW 03:56:58 10° NNE
Meteor 1-19 Rocket 4.3 03:50:13 10° N 03:56:04 84° E 03:58:33 37° SSE
ATLAS 2A CENTAUR R/B 3.5 03:54:19 39° SSW 03:56:18 46° S 04:23:51 10° ESE
SL-16 R/B 3.4 03:51:06 10° SE 03:57:03 49° ENE 04:03:00 10° N
Cosmos 2123 Rocket 3.9 03:51:33 10° N 03:57:55 85° W 04:00:32 38° S
Cosmos 1140 Rocket 3.3 03:52:48 10° NNW 03:57:57 85° WSW 03:59:21 49° S
Resurs 1-4 Rocket 2.9 03:55:35 10° NNE 04:00:41 46° E 04:03:07 28° SSE
Meteor 2-16 Rocket 4.4 03:59:46 47° SW 04:01:29 67° W 04:07:37 10° N
Cosmos 1544 Rocket 3.5 04:02:40 61° SSE 04:03:22 79° E 04:07:46 10° N
ADEOS 3.7 04:02:47 10° N 04:07:56 62° WNW 04:09:11 47° SW
SL-08 R/B 3.9 04:08:12 41° W 04:08:12 41° W 04:12:44 10° NNW
Cosmos 1633 2.9 04:10:16 54° NW 04:10:16 54° NW 04:13:27 10° N
COSMOS 2487 3.0 04:06:29 10° NNW 04:09:22 50° NW 04:09:22 50° NW
Meteor 1-11 Rocket 4.2 04:11:07 39° WSW 04:12:39 47° WNW 04:18:24 10° N
ATLAS 5 CENTAUR R/B 2.8 04:07:37 10° NNW 04:13:42 67° ENE 04:20:09 10° SE
Skynet4D Del rocket 4.4 04:18:04 30° S 04:18:04 30° S 04:21:56 10° SE
USA 161 2.8 04:20:43 33° NNW 04:20:43 33° NNW 04:22:32 10° NNW
Cosmos 2278 Rocket 2.8 04:18:39 34° WSW 04:20:25 44° WNW 04:25:50 10° N
Cosmos 1850 Rocket 3.9 04:17:13 10° NNW 04:22:26 67° WSW 04:24:56 31° S
Cosmos 2297 3.6 04:20:31 38° SSW 04:22:49 86° WNW 04:28:32 10° NNE
Cosmos 2173 Rocket 4.4 04:19:28 18° SSE 04:24:00 59° E 04:30:03 10° NNE
Yuri Rocket 4.2 04:23:06 36° SW 04:24:26 40° SSW 04:29:19 10° ESE
Centaur AC-125 4.2 04:25:53 16° SSE 04:25:53 16° SSE 04:27:44 10° SE
Cosmos 1741 Rocket 4.0 04:20:53 10° NNW 04:26:06 63° WSW 04:28:39 30° S
Cosmos 1400 Rocket 3.1 04:26:04 43° W 04:26:18 44° W 04:30:05 10° N
NOSS 5 (C) 4.1 04:28:01 72° WSW 04:28:14 77° WNW 04:31:20 10° NNE
Meteor 1-23 Rocket 4.2 04:24:41 10° NNW 04:30:21 69° W 04:33:39 25° S
Cosmos 1892 Rocket 3.5 04:26:45 10° NNW 04:31:01 59° W 04:32:13 42° SSW
Cosmos 1459 Rocket 4.1 04:31:33 19° S 04:36:19 79° E 04:42:37 10° N
Meteor 1-5 Rocket 4.3 04:33:54 29° SSW 04:37:01 72° W 04:42:45 10° N
CZ-2D R/B 4.0 04:34:27 10° NNE 04:38:24 54° E 04:40:56 21° S
Cosmos 1802 Rocket 4.2 04:34:29 15° S 04:39:36 70° E 04:45:42 10° NNE
Cosmos 2082 Rocket 2.7 04:36:46 10° NNW 04:42:27 63° ENE 04:48:04 10° SSE
BREEZE-M DEB (TANK) 1.7 04:42:38 47° WSW 04:43:17 74° NW 04:46:08 10° NE
CZ-4B R/B 4.3 04:38:23 10° NNE 04:43:45 42° E 04:49:02 10° S
Cosmos 2100 Rocket 4.0 04:42:55 20° S 04:47:24 80° W 04:53:45 10° N
USA 234 3.3 04:41:10 10° SSE 04:47:32 56° SW 04:53:57 10° NW
Cosmos 614 Rocket 4.4 04:44:57 10° NNW 04:49:45 41° WSW 04:52:24 23° SSW
MTI 3.7 04:49:07 22° SSE 04:51:07 88° WSW 04:54:25 10° NNW
PSLV R/B 3.3 04:51:38 39° SW 04:52:42 66° SSE 04:56:03 10° ENE
IRS-1D 4.1 04:48:48 10° N 04:53:30 40° WNW 04:55:57 24° SW
APEX 3.4 04:53:08 31° W 04:53:41 34° WNW 04:56:45 10° N
OAO 3 Copernicus 4.2 04:52:44 17° W 04:56:38 90° SSE 05:01:40 10° E
Cosmos 1315 Rocket 3.7 04:55:24 27° WSW 04:56:43 33° WNW 05:00:24 10° NNW
Meteor 2-4 Rocket 4.3 04:52:54 10° NNW 04:57:42 34° W 05:00:20 22° SW
SME Rocket 3.0 04:56:02 22° SSW 04:58:10 50° WSW 05:02:08 10° NNW
Cosmos 1500 4.0 04:54:58 11° SSE 04:58:32 50° E 05:02:19 10° NNE
Cosmos 1602 Rocket 3.4 04:56:40 10° N 05:01:02 82° W 05:05:23 10° S
CENTAUR R/B 3.8 04:54:25 10° NW 05:01:09 30° WSW 05:08:03 10° SSW
Cosmos 1346 Rocket 3.4 04:59:54 10° N 05:03:53 58° E 05:07:49 10° SSE
CZ-2D R/B 2.8 05:01:33 10° N 05:06:39 41° WNW 05:10:16 18° SW
Okean-O 4.4 05:07:02 10° NE 05:10:56 30° E 05:14:49 10° SSE
Cosmos 1174 3.1 05:08:00 10° NW 05:11:21 60° WSW 05:14:18 10° SSE
Meteor 1-12 Rocket 4.5 05:09:12 15° SSW 05:13:57 57° W 05:19:39 10° N
Cosmos 1975 3.1 05:12:53 19° SSW 05:15:31 47° W 05:19:23 10° N
Cosmos 1486 Rocket 4.2 05:10:28 10° NNW 05:15:49 79° ENE 05:21:09 10° SSE
Okean O Rocket 1.6 05:12:20 10° N 05:16:39 70° WNW 05:20:34 12° SSW
Cosmos 1626 Rocket 3.8 05:13:42 10° NNW 05:17:57 51° W 05:22:14 10° SSW
CZ-4B R/B 3.3 05:14:22 10° NNE 05:18:54 75° ESE 05:23:15 10° S
UNKNOWN OBJECT B 3.9 05:16:05 10° N 05:19:41 30° WNW 05:22:14 16° SW
Cosmos 1833 Rocket 2.6 05:14:31 10° NNW 05:20:09 79° WSW 05:25:44 10° SSE
ARIANE 5 R/B 4.0 05:16:45 10° NNW 05:20:19 20° WNW 05:23:15 13° WSW
Timation 2 Rocket 4.5 05:14:58 10° NW 05:20:21 34° WSW 05:25:37 10° SSW
Cosmos 2098 Rocket 3.3 05:20:22 10° S 05:23:46 61° E 05:28:04 10° NNE
NAVSTAR 52 R/B(PAM-D 3.4 05:23:09 21° W 05:24:13 59° NNW 05:26:33 10° ENE
BREEZE-M DEB (TANK) 3.8 05:20:04 12° SW 05:27:35 55° SE 05:30:34 10° ENE
DNEPR-1 R/B 3.9 05:26:21 10° NNW 05:31:43 83° ENE 05:36:11 10° SSE
Resurs 1-4 Rocket 3.7 05:36:27 10° NNW 05:40:07 19° WNW 05:43:47 10° WSW
SL-16 R/B 3.7 05:36:05 10° SW 05:40:50 23° W 05:45:37 10° NW
MOZ.5/SAFIR/RUBIN 5/SL-8 3.9 05:37:28 10° S 05:42:11 60° W 05:46:55 10° NNW
Thor Agena Rocket 3.5 05:37:42 10° S 05:42:50 66° WSW 05:47:56 10° NNW
USA 129 3.8 05:46:19 11° WSW 05:47:04 12° W 05:48:04 10° WNW
Cosmos 1606 Rocket 3.6 05:44:21 10° SSW 05:48:44 73° W 05:53:08 10° N
Cosmos 2369 Rocket 2.7 05:44:11 10° S 05:49:48 65° ESE 05:55:25 10° NNE
Atlas Centaur 2 3.8 05:44:00 10° SW 05:51:49 41° SSE 05:59:24 10° E
Cosmos 2233 Rocket 4.0 05:49:38 10° S 05:55:54 85° W 06:02:08 10° N
